Preview of NWS' New Version of Forecast
This preview is not operational and should not be used for support decisions.

Regional Weather Roundup (RWR)

Issued by National Weather Service (NWS)

                            
000
ASUS43 KMKX 221011
RWRWI 

WISCONSIN REGIONAL WEATHER ROUNDUP
NATIONAL WEATHER SERVICE MILWAUKEE/SULLIVAN WI
500 AM CDT MON JUL 22 2019

NOTE: "FAIR" INDICATES FEW OR NO CLOUDS BELOW 12,000 FEET WITH NO
SIGNIFICANT WEATHER AND/OR OBSTRUCTIONS TO VISIBILITY.

WIZ001-002-006>008-014>016-023>028-221100-
NORTHWEST WISCONSIN
  
CITY           SKY/WX    TMP DP  RH WIND       PRES   REMARKS
SUPERIOR ARPT  FAIR      48  47  99 CALM      30.18R                  
ASHLAND        FAIR      51  50  96 W6        30.16R                  
HAYWARD        MOCLDY    48  48 100 CALM      30.18R FOG              
SIREN          FAIR      52  48  84 CALM      30.19                   
CUMBERLAND     NOT AVBL                                               
RICE LAKE      FAIR      60  48  63 N5        30.17R                  
CHETEK         MOCLDY    63  60  90 N7        30.16R                  
LADYSMITH      FAIR      57  55  94 N5        30.17R                  
EAU CLAIRE     CLOUDY    61  56  83 N3        30.13R                  
MENOMONIE      MOCLDY    61  57  88 NW5       30.14S                  
NEW RICHMOND   FAIR      56  51  85 N5        30.17R                  
OSCEOLA        FAIR      56  53  92 CALM      30.21R                  
$$
 
WIZ003>005-009-010-017-018-221100-
NORTH CENTRAL WISCONSIN
  
CITY           SKY/WX    TMP DP  RH WIND       PRES   REMARKS
MANITOWISH WTR FOG       48  48 100 CALM      30.16R VSB 3/4          
ARBOR VITAE    FAIR      54  50  87 CALM      30.15R                  
WOODRUFF       FAIR      54  50  87 CALM      30.15R                  
RHINELANDER    CLOUDY    57  52  83 NW3       30.15R                  
EAGLE RIVER    FAIR      48  48 100 CALM      30.14R FOG              
LAND O LAKES   FAIR      46  46  99 CALM      30.16R                  
PHILLIPS       FAIR      49  49 100 CALM      30.15R FOG              
TOMAHAWK       CLOUDY    49  49  97 CALM      30.15S                  
MEDFORD        FAIR      52  51  94 CALM      30.14S                  
MERRILL        CLOUDY    52  52 100 CALM      30.14R                  
$$
 
WIZ029-030-035-036-043>047-221100-
CENTRAL WISCONSIN
  
CITY           SKY/WX    TMP DP  RH WIND       PRES   REMARKS
WAUSAU         FAIR      57  54  89 NW3       30.12R                  
MOSINEE        FAIR      55  54  94 N8        30.14R                  
MARSHFIELD     CLOUDY    61  54  77 N7        30.12R                  
STEVENS POINT  FAIR      58  56  94 CALM      30.12S                  
WAUPACA        NOT AVBL                                               
WAUTOMA        CLOUDY    62  60  93 N5        30.10S                  
WISC RAPIDS    CLOUDY    64  56  75 NE6       30.11S                  
CAMP DOUGLAS   NOT AVBL                                               
$$
 
WIZ011>013-019>022-031-037>040-048>050-221100-
NORTHEAST WISCONSIN
  
CITY           SKY/WX    TMP DP  RH WIND       PRES   REMARKS
ANTIGO         FAIR      51  51  99 CALM      30.14R                  
SHAWANO        FAIR      60  56  87 CALM      30.10R                  
OCONTO         FAIR      57  54  88 CALM      30.09R                  
STURGEON BAY   FAIR      63  52  67 N10       30.08S                  
GREEN BAY      FAIR      59  54  83 N6        30.08S                  
MANITOWOC      FAIR      59  54  83 N6        30.07S                  
APPLETON       FAIR      59  46  63 N5        30.07S                  
CLINTONVILLE   FAIR      60  54  82 N3        30.09S                  
OSHKOSH        MOCLDY    64  52  64 N9        30.07S                  
$$
 
WIZ032>034-041-042-053>061-221100-
SOUTHWEST WISCONSIN
  
CITY           SKY/WX    TMP DP  RH WIND       PRES   REMARKS
LA CROSSE      CLOUDY    67  57  70 NW8       30.10R                  
SPARTA         CLOUDY    60  56  87 N6        30.11R                  
VIROQUA        FAIR      61  61 100 N3        30.10R                  
BOSCOBEL       FAIR      64  60  87 CALM      30.07R                  
PRAIRIE DU CHI FAIR      64  58  82 CALM      30.07R                  
PLATTEVILLE    FAIR      64  64 100 N6        30.06R                  
$$

WIZ056-057-062-063-064-067-068-221100-
SOUTH CENTRAL WISCONSIN
  
CITY           SKY/WX    TMP DP  RH WIND       PRES   REMARKS
REEDSBURG      FAIR      63  63  99 NE5       30.08S                  
BARABOO/DELLS  MOCLDY    62  60  91 NE5       30.09R                  
LONE ROCK      FAIR      64  61  90 NE3       30.06R                  
MINERAL POINT  FAIR      63  63 100 NE7       30.07R                  
MADISON        CLOUDY    65  57  75 NE7       30.06R                  
MIDDLETON      MOCLDY    64  60  86 NE5       30.08R                  
WATERTOWN      FAIR      63  59  89 NE7       30.06R                  
MONROE         FAIR      63  58  84 N12       30.05R                  
JANESVILLE     FAIR      64  59  82 NE8       30.04R                  
$$
 
WIZ051-052-058>065-066-070>072-221100-
SOUTHEAST WISCONSIN
  
CITY           SKY/WX    TMP DP  RH WIND       PRES   REMARKS
MILWAUKEE      MOCLDY    63  54  72 N13G23    30.04R                  
WAUKESHA       CLOUDY    61  52  72 N8        30.06R                  
MILWAUKEE/TIMM CLOUDY    63  50  63 N9        30.06R                  
RACINE         FAIR      62  57  83 N12       30.05R                  
KENOSHA        FAIR      64  61  90 N6        30.04R                  
FOND DU LAC    CLOUDY    66  53  63 NE8       30.08R                  
SHEBOYGAN      MOCLDY    62  52  69 N6        30.06S                  
WEST BEND      CLOUDY    61  54  77 N6        30.07R                  
JUNEAU         CLOUDY    62  56  81 N6        30.08S                  
$$

LSZ147-162-221100-
LAKE SUPERIOR
  
STATION/POSITION TIME  TEMP    WIND        PRES    WAVE
                       AIR SEA DIR/SP/G            HT/PER
                 (UTC) (F)     (DEG/KT/KT) (MB)    (FT/S)
W MID LAKE BUOY  0950   54 47  270/  8/ 10 1019.3R   0
$$
 
LMZ867-665-643>646-221100-
LAKE MICHIGAN
  
STATION/POSITION TIME  TEMP    WIND        PRES    WAVE
                       AIR SEA DIR/SP/G            HT/PER
                 (UTC) (F)     (DEG/KT/KT) (MB)    (FT/S)
CHAMBERS ISLAND  0940   63     320/ 14/ 17 1017.3F
S GREEN BAY BUOY 0800   70 73   10/ 14/ 16 1018.4F
N MID LAKE BUOY  0950   62 64  350/ 14/ 16 1018.0F   2/ 4
NORTHPORT PIER   0940   65     320/  8/ 10 1017.6F
KEWAUNEE LAKESHO 0930   60     330/  2/  5 1017.5S
SHEBOYGAN LAKESH 1000   61     350/ 15/ 16 1017.6R
MILWAUKEE LAKESH 0950   62      10/ 19/ 22   N/A
S MID LAKE BUOY  0950   67 69   20/ 16/ 19 1016.2R   2/ 4
KENOSHA   LAKESH 1000   62      10/ 16/ 17 1016.6
$$

TC  - TEMPERATURE IN CELSIUS
VSB - VISIBILITY IN STATUTE MILES
WCI - WIND CHILL INDEX
HX  - HEAT INDEX